User: anonymous   Login
Location: Fort Wayne
(41.1310°N, 85.1290°W)
Time: 23:16:48
(UTC-04:00)
Language:

Cosmos 2056 Rocket - Orbit

View from above orbital plane
View from above orbital plane
View from above satellite
View from above satellite

Ground track
Ground track

The orbit data is extracted from the following two-line orbital elements,

1 20433U 90004B   17115.86974792 +.00000023 +00000-0 +16971-4 0  9995
2 20433 074.0349 092.2028 0042043 235.1018 171.1755 14.35982791427411
Epoch (UTC): 25 April 2017 20:52:26
Eccentricity: 0.0042043
inclination: 74.0349°
perigee height: 742 km
apogee height: 802 km
right ascension of ascending node: 92.2028°
argument of perigee: 235.1018°
revolutions per day: 14.35982791
mean anomaly at epoch: 171.1755°
orbit number at epoch: 42741

The dashed part of the orbit path shows where the satellite is in the earth's shadow,  

DLR